CZ-6A DEB, 54996

Orbit data source: Space-Track

CZ-6A DEB, 54996 is space debris in SSO originally from a launch on Fri, 11 Nov 2022 UTC launched from the Taiyaun Space Center, China (TSC). Debris objects in space refer to the collection of defunct objects orbiting the Earth. Examples of debris include non-operational satellites, rocket bodies, and fragments generated from explosions, collisions, or faulty payload assembly.

Loading next visibility...
Identifier
54996, 2022-151UM
Orbit
SSO
Country
Flag of CNCN / PRC
Related business
Manufacturer
SAST
Mission
Spacecraft
Bus & Motor
Unknown
Mass
Unknown
Launch date (UTC)
2022-11-11 (4 years ago)
Launch vehicle
Unknown
Launch site
Taiyaun Space Center, China (TSC)
Object type
Payload
Rocket body
Debris
Shape & HBR
Unknown shape, 0.1 m
Radar Cross Section
Medium (>0.1 m² and <1 m²)

Expand to show TLE details & history
Last TLE update: 15 hours ago

TLE from 15 hours ago
0 CZ-6A DEB
1 54996U 22151UM  26236.17851441  .00013260  00000-0  18057-2 0  9999
2 54996  98.6097 307.8108 0063227  55.3025 305.4118 14.77463492199447
Epoch: 2026-08-24T04:17Z
TLE epoch observation values (Epoch: 2026-08-24T04:17:03.645Z)
Latitude
Longitude
-88.91833°
Altitude
614.818 km
Speed
7.565 km/s
True Right ascension
20h 31m 14s
True Declination
0° 00' 00"
Sunlit
Object was in full shadow at epoch
Visualization orbit readout
Latitude
Unknown
Longitude
Unknown
Altitude
Unknown
Speed
Unknown
Apparent Right ascension
Unknown
Apparent Declination
Unknown
Sunlit
N/A
Visualization observer readout
Local Sidereal Time
10:52:29
Azimuth
Unknown
Elevation
Unknown
Doppler factor
Unknown
Orbital elements
Apogee altitude
678.758 km
Perigee altitude
590.081 km
Semi-major axis
7,012.556 km
Eccentricity
0.00632
Inclination
98.6097°
RAAN
307.8108°
Arg. of periapsis
55.3025°
True anomaly
304.8186°
Mean anomaly
305.4118°
Eccentric anomaly
305.11547°
Mean motion
3.69597 °/min
Orbital period
97.4 mins
BSTAR
0.0018057
Loading maneuver chart data...
Computing Atmospheric mass density...
Loading historical data...
Loading historical data...
Loading historical data...
Loading historical data...
Loading historical data...
Loading historical data...
Loading historical data...

Documentation

Showing up to 5 results
|